Regional Weather Roundup
Issued by NWS Goodland, KS

Home | Current Version | Previous Version | Graphics & Text | Print | Product List | Glossary On
Versions: 1 2 3 4 5 6 7 8 9 10 11 12 13 14 15 16 17 18 19 20 21 22 23 24 25 26 27 28 29 30 31 32 33 34 35 36 37 38 39 40 41 42 43 44 45 46 47 48 49 50
000
ASUS43 KGLD 302208
RWRGLD

GOODLAND FORECAST AREA HOURLY WEATHER ROUNDUP
NATIONAL WEATHER SERVICE GOODLAND KS
400 PM MDT TUE SEP 30 2014

...OFFICIAL OBSERVATIONS...

CITY           SKY/WX    TMP DP  RH WIND       PRES   REMARKS
GOODLAND KS    SUNNY     73  41  31 S10       29.77S
HILL CITY KS   SUNNY     80  55  42 E9        29.71F
IMPERIAL NEB   PTSUNNY   75  39  27 S9G17     29.73F
MCCOOK NEB     SUNNY     76  40  27 S3        29.72F
AKRON CO       MOSUNNY   69  36  29 W9        29.80S
BURLINGTON CO  SUNNY     72  36  26 W5        29.78F
LIMON CO       CLOUDY    66  32  28 NW9       29.82F
$$

...UNOFFICIAL OBSERVATIONS...

CITY           SKY/WX    TMP DP  RH WIND       PRES   REMARKS
COLBY KS       SUNNY     77  46  33 SE6       29.75S
GOVE KS          N/A     78  32  18 MISG        N/A
NORTON KS      SUNNY     79  39  24 SE8       29.71S
SHARON SPRINGS   N/A     76  43  31 CALM        N/A
WAKEENEY KS      N/A     77  53  42 MISG        N/A
KIT CARSON CO    N/A     71  40  32 MISG        N/A
YUMA CO          N/A     72  36  27 W8          N/A
$$



USA.gov is the U.S. government's official web portal to all federal, state and local government web resources and services.